Location: Dead Woman Crossing
(43.5369°N, 106.3228°W)
Time: 08:27:30
(UTC+00:00)

CAS-4B - Visible Passes

Search period start: 01 July 2022 00:00
Search period end: 11 July 2022 00:00
Orbit: 523 x 537 km, 43.0° (Epoch: 30 June)

Date Brightness Start Highest point End Pass type
(mag) Time Alt. Az. Time Alt. Az. Time Alt. Az.
01 Jul ? 09:06:28 35° SSE 09:06:42 35° SSE 09:10:24 10° E visible
01 Jul ? 10:42:25 10° WSW 10:46:28 79° S 10:50:32 10° E visible
02 Jul ? 08:54:16 40° SSE 08:54:16 40° SSE 08:58:00 10° E visible
02 Jul ? 10:29:58 10° W 10:34:01 82° S 10:38:04 10° E visible
03 Jul ? 08:42:03 45° SE 08:42:03 45° SE 08:45:34 10° E visible
03 Jul ? 10:17:31 10° W 10:21:33 84° S 10:25:37 10° E visible
04 Jul ? 08:29:49 47° SE 08:29:49 47° SE 08:33:08 10° E visible
04 Jul ? 10:05:03 10° W 10:09:06 85° S 10:13:10 10° E visible
05 Jul ? 08:17:38 45° ESE 08:17:38 45° ESE 08:20:40 10° E visible
05 Jul ? 09:52:48 11° W 09:56:39 85° S 10:00:41 10° E visible
06 Jul ? 08:05:27 40° E 08:05:27 40° E 08:08:13 10° E visible
06 Jul ? 09:40:38 13° W 09:44:10 83° S 09:48:13 10° E visible
07 Jul ? 07:53:21 34° E 07:53:21 34° E 07:55:44 10° E visible
07 Jul ? 09:28:33 16° W 09:31:42 81° S 09:35:44 10° E visible
08 Jul ? 07:41:24 26° E 07:41:24 26° E 07:43:15 10° E visible
08 Jul ? 09:16:36 21° W 09:19:12 77° S 09:23:14 10° ESE visible
08 Jul ? 10:55:19 10° W 10:58:57 32° SSW 11:02:35 10° SE visible
09 Jul ? 07:29:44 17° E 07:29:44 17° E 07:30:46 10° E visible
09 Jul ? 09:04:58 32° W 09:06:43 72° S 09:10:44 10° ESE visible
09 Jul ? 10:42:55 10° W 10:46:23 28° SSW 10:49:51 10° SSE visible
10 Jul ? 08:53:56 64° SW 08:54:12 66° SSW 08:58:12 10° ESE visible
10 Jul ? 10:30:33 10° W 10:33:48 24° SSW 10:37:05 10° SSE visible
